Time,TemperatureF,DewpointF,PressureIn,WindDirection,WindDirectionDegrees,WindSpeedMPH,WindSpeedGustMPH,Humidity,HourlyPrecipIn,Conditions,Clouds,dailyrainin,SoftwareType,DateUTC
2013-07-02 00:02:00,82.0,-99.9,-100.00,North,-999,-999.0,-999.0,-999,-99.99,,,-99.99,,2013-07-02 04:02:00,
2013-07-02 00:11:00,82.0,-99.9,30.01,North,-999,-999.0,-999.0,-999,-99.99,,,-99.99,,2013-07-02 04:11:00,
2013-07-02 00:22:00,82.0,-99.9,30.01,North,-999,-999.0,-999.0,-999,-99.99,,,-99.99,,2013-07-02 04:22:00,
2013-07-02 00:33:00,82.0,-99.9,-100.00,North,-999,-999.0,-999.0,-999,-99.99,,,-99.99,,2013-07-02 04:33:00,
2013-07-02 00:54:00,82.0,-99.9,-100.00,North,-999,-999.0,-999.0,-999,-99.99,,,-99.99,,2013-07-02 04:54:00,
2013-07-02 01:02:00,82.0,-99.9,30.00,North,-999,-999.0,-999.0,-999,-99.99,,,-99.99,,2013-07-02 05:02:00,
2013-07-02 01:43:00,82.0,-99.9,-100.00,North,-999,-999.0,-999.0,-999,-99.99,,,-99.99,,2013-07-02 05:43:00,
2013-07-02 03:34:00,82.0,-99.9,29.97,North,-999,-999.0,-999.0,-999,-99.99,,,-99.99,,2013-07-02 07:34:00,
2013-07-02 03:44:00,82.0,-99.9,29.96,North,-999,-999.0,-999.0,-999,-99.99,,,-99.99,,2013-07-02 07:44:00,
2013-07-02 04:02:00,81.0,-99.9,29.96,North,-999,-999.0,-999.0,-999,-99.99,,,-99.99,,2013-07-02 08:02:00,
2013-07-02 04:22:00,81.0,-99.9,-100.00,North,-999,-999.0,-999.0,-999,-99.99,,,-99.99,,2013-07-02 08:22:00,
2013-07-02 05:02:00,81.0,-99.9,29.94,North,-999,-999.0,-999.0,-999,-99.99,,,-99.99,,2013-07-02 09:02:00,
2013-07-02 05:23:00,81.0,-99.9,-100.00,North,-999,-999.0,-999.0,-999,-99.99,,,-99.99,,2013-07-02 09:23:00,
2013-07-02 05:33:00,81.0,-99.9,29.94,North,-999,-999.0,-999.0,-999,-99.99,,,-99.99,,2013-07-02 09:33:00,
2013-07-02 05:52:00,81.0,-99.9,29.95,North,-999,-999.0,-999.0,-999,-99.99,,,-99.99,,2013-07-02 09:52:00,
2013-07-02 06:22:00,82.0,-99.9,-100.00,North,-999,-999.0,-999.0,-999,-99.99,,,-99.99,,2013-07-02 10:22:00,
2013-07-02 06:33:00,82.0,-99.9,-100.00,North,-999,-999.0,-999.0,-999,-99.99,,,-99.99,,2013-07-02 10:33:00,
2013-07-02 07:11:00,82.0,-99.9,29.97,North,-999,-999.0,-999.0,-999,-99.99,,,-99.99,,2013-07-02 11:11:00,
2013-07-02 07:22:00,82.0,-99.9,-100.00,North,-999,-999.0,-999.0,-999,-99.99,,,-99.99,,2013-07-02 11:22:00,
2013-07-02 08:11:00,83.0,-99.9,29.99,North,-999,-999.0,-999.0,-999,-99.99,,,-99.99,,2013-07-02 12:11:00,
2013-07-02 08:43:00,85.0,-99.9,29.99,North,-999,-999.0,-999.0,-999,-99.99,,,-99.99,,2013-07-02 12:43:00,
2013-07-02 09:01:00,85.0,-99.9,30.00,North,-999,-999.0,-999.0,-999,-99.99,,,-99.99,,2013-07-02 13:01:00,
2013-07-02 09:11:00,85.0,-99.9,30.00,North,-999,-999.0,-999.0,-999,-99.99,,,-99.99,,2013-07-02 13:11:00,
2013-07-02 09:34:00,85.0,-99.9,30.01,North,-999,-999.0,-999.0,-999,-99.99,,,-99.99,,2013-07-02 13:34:00,
2013-07-02 09:44:00,83.0,-99.9,-100.00,North,-999,-999.0,-999.0,-999,-99.99,,,-99.99,,2013-07-02 13:44:00,
2013-07-02 10:22:00,81.0,-99.9,30.01,North,-999,-999.0,-999.0,-999,-99.99,,,-99.99,,2013-07-02 14:22:00,
2013-07-02 10:33:00,81.0,-99.9,30.02,North,-999,-999.0,-999.0,-999,-99.99,,,-99.99,,2013-07-02 14:33:00,
2013-07-02 10:43:00,82.0,-99.9,30.02,North,-999,-999.0,-999.0,-999,-99.99,,,-99.99,,2013-07-02 14:43:00,
2013-07-02 11:02:00,83.0,-99.9,-100.00,North,-999,-999.0,-999.0,-999,-99.99,,,-99.99,,2013-07-02 15:02:00,
2013-07-02 12:22:00,83.0,-99.9,-100.00,North,-999,-999.0,-999.0,-999,-99.99,,,-99.99,,2013-07-02 16:22:00,
2013-07-02 12:33:00,84.0,-99.9,30.04,North,-999,-999.0,-999.0,-999,-99.99,,,-99.99,,2013-07-02 16:33:00,
2013-07-02 12:43:00,84.0,-99.9,30.04,North,-999,-999.0,-999.0,-999,-99.99,,,-99.99,,2013-07-02 16:43:00,
2013-07-02 13:12:00,84.0,-99.9,30.03,North,-999,-999.0,-999.0,-999,-99.99,,,-99.99,,2013-07-02 17:12:00,
2013-07-02 13:22:00,85.0,-99.9,-100.00,North,-999,-999.0,-999.0,-999,-99.99,,,-99.99,,2013-07-02 17:22:00,
2013-07-02 13:33:00,85.0,-99.9,30.04,North,-999,-999.0,-999.0,-999,-99.99,,,-99.99,,2013-07-02 17:33:00,
2013-07-02 16:02:00,82.0,-99.9,29.99,North,-999,-999.0,-999.0,-999,-99.99,,,-99.99,,2013-07-02 20:02:00,
2013-07-02 16:43:00,82.0,-99.9,30.01,North,-999,-999.0,-999.0,-999,-99.99,,,-99.99,,2013-07-02 20:43:00,
2013-07-02 17:03:00,79.0,-99.9,30.00,North,-999,-999.0,-999.0,-999,-99.99,,,-99.99,,2013-07-02 21:03:00,
2013-07-02 17:11:00,79.0,-99.9,30.01,North,-999,-999.0,-999.0,-999,-99.99,,,-99.99,,2013-07-02 21:11:00,
2013-07-02 17:22:00,80.0,-99.9,30.01,North,-999,-999.0,-999.0,-999,-99.99,,,-99.99,,2013-07-02 21:22:00,
2013-07-02 17:44:00,82.0,-99.9,30.01,North,-999,-999.0,-999.0,-999,-99.99,,,-99.99,,2013-07-02 21:44:00,
2013-07-02 17:52:00,82.0,-99.9,30.01,North,-999,-999.0,-999.0,-999,-99.99,,,-99.99,,2013-07-02 21:52:00,
2013-07-02 18:02:00,81.0,-99.9,30.01,North,-999,-999.0,-999.0,-999,-99.99,,,-99.99,,2013-07-02 22:02:00,
2013-07-02 18:34:00,79.0,-99.9,-100.00,North,-999,-999.0,-999.0,-999,-99.99,,,-99.99,,2013-07-02 22:34:00,
2013-07-02 18:53:00,77.0,-99.9,30.02,North,-999,-999.0,-999.0,-999,-99.99,,,-99.99,,2013-07-02 22:53:00,
2013-07-02 19:12:00,76.0,-99.9,30.03,North,-999,-999.0,-999.0,-999,-99.99,,,-99.99,,2013-07-02 23:12:00,
2013-07-02 19:22:00,76.0,-99.9,30.04,North,-999,-999.0,-999.0,-999,-99.99,,,-99.99,,2013-07-02 23:22:00,
2013-07-02 19:33:00,76.0,-99.9,30.04,North,-999,-999.0,-999.0,-999,-99.99,,,-99.99,,2013-07-02 23:33:00,
2013-07-02 19:52:00,74.0,-99.9,30.06,North,-999,-999.0,-999.0,-999,-99.99,,,-99.99,,2013-07-02 23:52:00,
2013-07-02 20:02:00,74.0,-99.9,30.04,North,-999,-999.0,-999.0,-999,-99.99,,,-99.99,,2013-07-03 00:02:00,
2013-07-02 20:12:00,73.0,-99.9,-100.00,North,-999,-999.0,-999.0,-999,-99.99,,,-99.99,,2013-07-03 00:12:00,
2013-07-02 20:33:00,74.0,-99.9,30.05,North,-999,-999.0,-999.0,-999,-99.99,,,-99.99,,2013-07-03 00:33:00,
2013-07-02 20:44:00,74.0,-99.9,-100.00,North,-999,-999.0,-999.0,-999,-99.99,,,-99.99,,2013-07-03 00:44:00,
2013-07-02 20:52:00,74.0,-99.9,-100.00,North,-999,-999.0,-999.0,-999,-99.99,,,-99.99,,2013-07-03 00:52:00,
2013-07-02 21:01:00,74.0,-99.9,30.05,North,-999,-999.0,-999.0,-999,-99.99,,,-99.99,,2013-07-03 01:01:00,
2013-07-02 21:11:00,74.0,-99.9,-100.00,North,-999,-999.0,-999.0,-999,-99.99,,,-99.99,,2013-07-03 01:11:00,
2013-07-02 22:06:00,75.0,-99.9,30.06,North,-999,-999.0,-999.0,-999,-99.99,,,-99.99,,2013-07-03 02:06:00,
2013-07-02 23:26:00,75.0,-99.9,30.06,North,-999,-999.0,-999.0,-999,-99.99,,,-99.99,,2013-07-03 03:26:00,
2013-07-02 23:36:00,75.0,-99.9,30.07,North,-999,-999.0,-999.0,-999,-99.99,,,-99.99,,2013-07-03 03:36:00,